LPPT

Lisbon Humberto Delgado Airport

Airport
ICAO code
LPPT
IATA Code
LIS
Summary
ICAO Region
EUR
ICAO Territory
Location

Portela, Lisbon

Serving
Lisbon
Elevation
374 ft
Coordinates
38° 46' 31" N , 9° 8' 5" W
KCC
Metar
Observation
LPPT 270530Z 34008KT CAVOK 08/02 Q1020
Station
Lisboa / Portela
Date/Time
2023-01-27 05:30:00
Wind direction
340°
Wind speed
08 kts
Lowest cloud amount
clouds and visibility OK
Temperature
8°C
Dew point
2°C
Humidity
65%
QNH
1020 hPa
Weather condition
n/a

Lisbon Portela Airport, also known as Lisbon Airport, is located 7 km north of Castle of São Jorge in the city of Lisbon, the capital of Portugal.

Climatology

Dry-summer subtropical ”Mediterranean" climate (Köppen climate classification Csa)

Runways

Designator Length Width Surface Rops
17/35 2400 45 ASP Yes/Yes
3/21 3805 45 ASP Yes/Yes

SKYbrary Partners:

Safety knowledge contributed by: